Date String (YYYY-MM-DD hh:mm:ss) UTC,Instrument flags,absolute air pressure of the measurement (hPa),sample flow rate (lpm),inlet stack bypass flow (lpm),air temperature of the measurement (°C),ambient temperature measured by the external sensor (°C),aerosol sample conditioner tube jacket temperature (°C),OPC LED temperature (°C),internal box temperature (°C),relative humidity of the measurement (%),span deviation,mass concentration of particles derived from Lorenz-Mie calculation of OPC scattering (μg/m³),mass concentration of particles derived from Lorenz-Mie calculation of OPC scattering (μg/m³),mass concentration of particles derived from Lorenz-Mie calculation of OPC scattering (μg/m³)
DateTimeUTC,F1_M11,P_M11,Q1_M11,Q2_M11,T1_M11,T2_M11,T3_M11,T4_M11,T5_M11,U1_M11,ZSPAN_M11,X0_M11,X2_M11,X1_M11
2024-03-26 23:00:00,SystemResetWarning,0821.0,5.00,000.00,020.3,019.6,000.0,028.8,022.1,18.0,0000.7,0017.27,0012.04,0011.60
2024-03-26 23:01:00,SystemResetWarning,0820.6,5.01,000.00,020.3,019.6,000.0,028.8,022.1,17.7,0000.8,0018.10,0011.99,0011.55
2024-03-26 23:02:00,SystemResetWarning,0820.7,5.00,000.00,020.3,019.6,000.0,028.8,022.1,17.8,0000.8,0018.31,0011.98,0011.54
2024-03-26 23:03:00,SystemResetWarning,0820.7,5.00,000.00,020.3,019.5,000.0,028.8,022.0,17.7,0001.1,0018.92,0011.98,0011.55
2024-03-26 23:04:00,SystemResetWarning,0820.5,5.00,000.00,020.3,019.5,000.0,028.8,022.0,17.7,0000.8,0019.43,0012.02,0011.57
2024-03-26 23:05:00,SystemResetWarning,0820.6,5.00,000.00,020.3,019.5,000.0,028.8,022.0,18.1,0000.8,0019.68,0012.07,0011.59
2024-03-26 23:06:00,SystemResetWarning,0820.5,5.00,000.00,020.2,019.5,000.0,028.8,022.0,17.8,0000.9,0020.01,0012.08,0011.60
2024-03-26 23:07:00,SystemResetWarning,0820.5,4.99,000.00,020.2,019.5,000.0,028.8,022.0,17.8,0001.2,0019.91,0012.16,0011.62
2024-03-26 23:08:00,SystemResetWarning,0820.5,5.00,000.00,020.2,019.5,000.0,028.8,022.0,17.7,0001.0,0019.89,0012.19,0011.62
2024-03-26 23:09:00,SystemResetWarning,0820.5,5.00,000.00,020.2,019.4,000.0,028.8,022.0,18.0,0000.8,0019.69,0012.22,0011.64
2024-03-26 23:10:00,SystemResetWarning,0820.5,4.99,000.00,020.2,019.4,000.0,028.8,022.0,17.8,0001.0,0020.41,0012.26,0011.67
2024-03-26 23:11:00,SystemResetWarning,0820.5,5.01,000.00,020.2,019.4,000.0,028.8,022.0,17.7,0001.1,0020.27,0012.27,0011.68
2024-03-26 23:12:00,SystemResetWarning,0820.5,5.02,000.00,020.2,019.4,000.0,028.8,022.0,18.0,0000.5,0019.72,0012.31,0011.72
2024-03-26 23:13:00,SystemResetWarning,0820.5,5.00,000.00,020.2,019.4,000.0,028.8,021.9,18.0,0000.6,0020.09,0012.35,0011.74
2024-03-26 23:14:00,SystemResetWarning,0820.6,5.00,000.00,020.2,019.4,000.0,028.8,021.9,18.1,0000.6,0019.55,0012.41,0011.76
2024-03-26 23:15:00,SystemResetWarning,0820.5,4.99,000.00,020.2,019.4,000.0,028.8,021.9,18.1,0001.0,0019.54,0012.39,0011.76
2024-03-26 23:16:00,SystemResetWarning,0820.6,4.99,000.00,020.2,019.4,000.0,028.8,022.0,18.4,0001.1,0019.96,0012.42,0011.78
2024-03-26 23:17:00,SystemResetWarning,0820.5,5.00,000.00,020.2,019.4,000.0,028.8,022.0,18.5,0001.0,0019.29,0012.48,0011.81
2024-03-26 23:18:00,SystemResetWarning,0820.6,5.00,000.00,020.2,019.4,000.0,028.8,022.0,17.8,0000.8,0019.06,0012.45,0011.81
2024-03-26 23:19:00,SystemResetWarning,0820.5,5.00,000.00,020.2,019.4,000.0,028.8,021.9,17.7,0001.0,0018.92,0012.43,0011.81
2024-03-26 23:20:00,SystemResetWarning,0820.5,5.00,000.00,020.2,019.4,000.0,028.8,022.0,17.8,0001.2,0018.56,0012.40,0011.80
2024-03-26 23:21:00,SystemResetWarning,0820.5,5.01,000.00,020.2,019.4,000.0,028.8,022.0,18.0,0001.0,0017.69,0012.35,0011.77
2024-03-26 23:22:00,SystemResetWarning,0820.6,5.00,000.00,020.2,019.5,000.0,028.8,022.0,18.4,0000.7,0018.57,0012.35,0011.75
2024-03-26 23:23:00,SystemResetWarning,0820.5,5.01,000.00,020.2,019.5,000.0,028.8,022.0,18.4,0001.0,0018.45,0012.30,0011.72
2024-03-26 23:24:00,SystemResetWarning,0820.6,5.00,000.00,020.2,019.5,000.0,028.8,022.0,17.9,0001.0,0018.42,0012.25,0011.69
2024-03-26 23:25:00,SystemResetWarning,0820.6,4.99,000.00,020.2,019.5,000.0,028.8,022.0,18.0,0001.0,0018.30,0012.20,0011.67
2024-03-26 23:26:00,SystemResetWarning,0820.6,5.00,000.00,020.2,019.5,000.0,028.8,022.0,17.4,0001.1,0017.94,0012.17,0011.65
2024-03-26 23:27:00,SystemResetWarning,0820.6,5.00,000.00,020.2,019.5,000.0,028.8,022.0,17.3,0001.2,0017.62,0012.16,0011.61
2024-03-26 23:28:00,SystemResetWarning,0820.6,5.00,000.00,020.2,019.5,000.0,028.8,022.0,17.6,0001.3,0017.13,0012.09,0011.56
2024-03-26 23:29:00,SystemResetWarning,0820.6,5.00,000.00,020.2,019.5,000.0,028.8,022.0,17.7,0001.5,0017.63,0012.04,0011.53
2024-03-26 23:30:00,SystemResetWarning,0820.6,5.00,000.00,020.2,019.5,000.0,028.8,022.0,17.9,0001.5,0018.61,0012.05,0011.52
2024-03-26 23:31:00,SystemResetWarning,0820.6,5.01,000.00,020.2,019.4,000.0,028.8,022.0,17.7,0001.4,0019.04,0012.03,0011.50
2024-03-26 23:32:00,SystemResetWarning,0820.6,5.00,000.00,020.2,019.4,000.0,028.8,022.0,17.8,0001.3,0019.24,0012.02,0011.49
2024-03-26 23:33:00,SystemResetWarning,0820.6,5.00,000.00,020.2,019.4,000.0,028.8,022.0,17.4,0001.4,0019.19,0012.02,0011.47
2024-03-26 23:34:00,SystemResetWarning,0820.6,5.00,000.00,020.2,019.4,000.0,028.8,022.0,17.7,0001.6,0017.99,0011.98,0011.47
2024-03-26 23:35:00,SystemResetWarning,0820.6,5.00,000.00,020.2,019.4,000.0,028.8,022.0,17.6,0001.7,0017.76,0011.96,0011.44
2024-03-26 23:36:00,SystemResetWarning,0820.6,5.00,000.00,020.2,019.4,000.0,028.8,022.0,17.7,0001.7,0017.14,0011.95,0011.44
2024-03-26 23:37:00,SystemResetWarning,0820.6,5.00,000.00,020.2,019.4,000.0,028.8,022.0,17.6,0001.7,0017.40,0011.97,0011.44
2024-03-26 23:38:00,SystemResetWarning,0820.7,5.00,000.00,020.2,019.4,000.0,028.8,022.0,17.8,0001.4,0017.81,0011.98,0011.44
2024-03-26 23:39:00,SystemResetWarning,0820.7,4.99,000.00,020.2,019.4,000.0,028.8,022.0,18.0,0001.3,0018.21,0012.00,0011.47
2024-03-26 23:40:00,SystemResetWarning,0820.7,5.00,000.00,020.2,019.4,000.0,028.8,022.0,17.5,0000.9,0018.51,0012.03,0011.50
2024-03-26 23:41:00,SystemResetWarning,0820.7,4.99,000.00,020.2,019.4,000.0,028.8,022.0,17.5,0001.1,0018.11,0012.03,0011.49
2024-03-26 23:42:00,SystemResetWarning,0820.8,5.00,000.00,020.2,019.5,000.0,028.8,022.0,18.1,0001.3,0017.64,0012.05,0011.51
2024-03-26 23:43:00,SystemResetWarning,0820.7,5.01,000.00,020.2,019.5,000.0,028.8,022.0,17.9,0001.4,0017.60,0012.09,0011.53
2024-03-26 23:44:00,SystemResetWarning,0820.8,5.00,000.00,020.2,019.5,000.0,028.8,022.0,17.7,0001.4,0018.26,0012.12,0011.57
2024-03-26 23:45:00,SystemResetWarning,0820.8,5.00,000.00,020.2,019.6,000.0,028.8,022.0,17.6,0001.5,0018.46,0012.17,0011.58
2024-03-26 23:46:00,SystemResetWarning,0820.8,5.00,000.00,020.2,019.5,000.0,028.8,022.0,17.4,0001.4,0018.56,0012.19,0011.59
2024-03-26 23:47:00,SystemResetWarning,0820.8,4.99,000.00,020.2,019.5,000.0,028.8,022.0,17.3,0000.8,0019.19,0012.19,0011.58
2024-03-26 23:48:00,SystemResetWarning,0820.8,4.99,000.00,020.2,019.5,000.0,028.8,022.0,17.6,0000.8,0019.29,0012.22,0011.59
2024-03-26 23:49:00,SystemResetWarning,0820.8,5.01,000.00,020.2,019.6,000.0,028.8,022.0,17.6,0000.9,0018.77,0012.24,0011.62
2024-03-26 23:50:00,SystemResetWarning,0820.8,5.01,000.00,020.2,019.6,000.0,028.8,022.0,17.3,0000.7,0018.47,0012.28,0011.64
2024-03-26 23:51:00,SystemResetWarning,0820.8,4.99,000.00,020.2,019.6,000.0,028.8,022.0,17.5,0000.9,0018.66,0012.31,0011.63
2024-03-26 23:52:00,SystemResetWarning,0820.8,4.99,000.00,020.3,019.6,000.0,028.8,022.0,17.7,0000.7,0018.71,0012.33,0011.64
2024-03-26 23:53:00,SystemResetWarning,0820.8,4.99,000.00,020.3,019.6,000.0,028.8,022.1,17.9,0000.6,0018.42,0012.31,0011.65
2024-03-26 23:54:00,SystemResetWarning,0820.8,5.00,000.00,020.3,019.6,000.0,028.8,022.1,17.9,0000.6,0018.32,0012.32,0011.66
2024-03-26 23:55:00,SystemResetWarning,0820.8,5.00,000.00,020.3,019.6,000.0,028.8,022.1,17.4,0000.8,0018.00,0012.31,0011.66
2024-03-26 23:56:00,SystemResetWarning,0820.8,5.00,000.00,020.3,019.7,000.0,028.8,022.1,17.4,0000.9,0018.31,0012.29,0011.64
2024-03-26 23:57:00,SystemResetWarning,0820.8,5.01,000.00,020.3,019.7,000.0,028.8,022.1,17.5,0000.8,0018.40,0012.28,0011.63
2024-03-26 23:58:00,SystemResetWarning,0820.8,5.00,000.00,020.3,019.7,000.0,028.8,022.1,17.4,0001.0,0018.35,0012.26,0011.64
2024-03-26 23:59:00,SystemResetWarning,0821.0,5.00,000.00,020.3,019.7,000.0,028.8,022.2,17.4,0000.6,0018.54,0012.23,0011.64
